Location: Village de las Huertas
(35.3014°N, 106.4095°W)
Time: 16:56:12
(UTC+00:00)

Meteor 1-31 Rocket - Pass Details

Date: 29 October 2020
Orbit: 521 x 546 km, 97.6° (Epoch: 25 November)

Event Time Altitude Azimuth Distance (km) Brightness Sun altitude
Rises 12:06:25 0° 6° (N) 2,718 6.4 -16.5°
Reaches altitude 10° 12:08:34 10° 2° (N) 1,820 5.4 -16.1°
Maximum altitude 12:12:25 55° 285° (WNW) 656 2.8 -15.3°
Drops below altitude 10° 12:16:14 10° 207° (SSW) 1,800 5.2 -14.5°
Sets 12:18:21 0° 203° (SSW) 2,684 6.2 -14.1°
